User: anonymous   Login
Location: Unspecified
(0.0000°N, 0.0000°E)
Time: 16:07:28
(UTC+00:00)
Language:

Tiros N - Orbit

View from above orbital plane
View from above orbital plane
View from above satellite
View from above satellite

Ground track
Ground track

The orbit data is extracted from the following two-line orbital elements,

1 11060U 78096A   17348.73778292 +.00000000 +00000-0 +21801-4 0  9992
2 11060 098.8713 038.8863 0010730 180.2694 179.8477 14.18177840238336
Epoch (UTC): 14 December 2017 17:42:24
Eccentricity: 0.0010730
inclination: 98.8713°
perigee height: 824 km
apogee height: 839 km
right ascension of ascending node: 38.8863°
argument of perigee: 180.2694°
revolutions per day: 14.18177840
mean anomaly at epoch: 179.8477°
orbit number at epoch: 23833

The dashed part of the orbit path shows where the satellite is in the earth's shadow,  

DLR